Tracking 29892 objects as of 21-Nov-2024
HD Live streaming from Space Station
objects crossing your sky now

STARLINK-3506

Track STARLINK-3506 now!
10-day predictions
STARLINK-3506 is classified as:


NORAD ID: 51751
Int'l Code: 2022-016AP
Perigee: 544.4 km
Apogee: 549.3 km
Inclination: 53.2 °
Period: 95.4 minutes
Semi major axis: 6917 km
RCS: Unknown
Launch date: February 21, 2022
Source: United States (US)
Launch site: AIR FORCE EASTERN TEST RANGE (AFETR)
Your satellite tracking list
Your tracking list is empty




NASA's NSSDC Master Catalog

Two Line Element Set (TLE):
1 51751U 22016AP  24325.89765416  .00013158  00000-0  84298-3 0  9994
2 51751  53.2164 276.0625 0003571  97.7725 262.3673 15.08850887153292
Source of the keplerian elements: AFSPC